TimeEST,TemperatureF,Dew PointF,Humidity,Sea Level PressureIn,VisibilityMPH,Wind Direction,Wind SpeedMPH,Gust SpeedMPH,PrecipitationIn,Events,Conditions,WindDirDegrees,DateUTC
12:52 AM,10.0,-4.0,53,30.21,10.0,NW,8.1,-,N/A,,Clear,310,2014-01-28 05:52:00
1:52 AM,9.0,-5.1,53,30.23,10.0,NW,8.1,-,N/A,,Clear,310,2014-01-28 06:52:00
2:52 AM,8.1,-6.0,53,30.23,10.0,NNW,5.8,-,N/A,,Clear,330,2014-01-28 07:52:00
3:52 AM,8.1,-7.1,50,30.23,10.0,NNW,5.8,-,N/A,,Scattered Clouds,330,2014-01-28 08:52:00
4:52 AM,7.0,-6.0,55,30.24,10.0,NNW,5.8,-,N/A,,Overcast,330,2014-01-28 09:52:00
5:52 AM,7.0,-6.0,55,30.27,10.0,North,4.6,-,N/A,,Overcast,360,2014-01-28 10:52:00
6:52 AM,7.0,-6.0,55,30.29,10.0,North,4.6,-,N/A,,Overcast,360,2014-01-28 11:52:00
7:52 AM,7.0,-6.0,55,30.28,10.0,North,4.6,-,N/A,,Overcast,10,2014-01-28 12:52:00
8:52 AM,7.0,-6.0,55,30.28,10.0,NNW,3.5,-,N/A,,Overcast,340,2014-01-28 13:52:00
9:52 AM,8.1,-6.0,53,30.31,10.0,West,3.5,-,N/A,,Overcast,280,2014-01-28 14:52:00
10:52 AM,10.0,-2.9,56,30.31,8.0,Calm,Calm,-,0.00,Snow,Light Snow,0,2014-01-28 15:52:00
11:37 AM,10.4,-0.4,62,30.16,2.5,North,4.6,-,0.00,Snow,Light Snow,10,2014-01-28 16:37:00
11:52 AM,12.0,1.0,61,30.29,1.8,North,3.5,-,0.00,Snow,Light Snow,10,2014-01-28 16:52:00
11:58 AM,12.2,-0.4,57,30.16,3.0,Calm,Calm,-,0.00,Snow,Light Snow,0,2014-01-28 16:58:00
12:06 PM,12.2,-0.4,57,30.15,4.0,Calm,Calm,-,0.00,Snow,Light Snow,0,2014-01-28 17:06:00
12:43 PM,12.2,1.4,62,30.13,2.5,Calm,Calm,-,0.00,Snow,Light Snow,0,2014-01-28 17:43:00
12:50 PM,14.0,1.4,57,30.12,4.0,Calm,Calm,-,0.00,Snow,Light Snow,0,2014-01-28 17:50:00
12:52 PM,14.0,1.0,56,30.26,4.0,Calm,Calm,-,0.00,Snow,Light Snow,0,2014-01-28 17:52:00
1:22 PM,12.2,1.4,62,30.11,4.0,Calm,Calm,-,0.00,Snow,Light Snow,0,2014-01-28 18:22:00
1:30 PM,14.0,3.2,62,30.10,2.5,Calm,Calm,-,0.00,Snow,Light Snow,0,2014-01-28 18:30:00
1:49 PM,14.0,3.2,62,30.10,3.0,Calm,Calm,-,0.00,Snow,Light Snow,0,2014-01-28 18:49:00
1:52 PM,14.0,3.0,62,30.24,3.0,Calm,Calm,-,0.00,Snow,Light Snow,0,2014-01-28 18:52:00
2:24 PM,14.0,3.2,62,30.09,2.0,Calm,Calm,-,0.00,Snow,Light Snow,0,2014-01-28 19:24:00
2:52 PM,14.0,3.9,64,30.22,2.0,Calm,Calm,-,0.00,Snow,Light Snow,0,2014-01-28 19:52:00
3:08 PM,15.8,3.2,58,30.07,4.0,Calm,Calm,-,0.00,Snow,Light Snow,0,2014-01-28 20:08:00
3:50 PM,15.8,3.2,58,30.07,6.0,Calm,Calm,-,0.00,Snow,Light Snow,0,2014-01-28 20:50:00
3:52 PM,15.1,3.0,59,30.21,5.0,Calm,Calm,-,0.00,Snow,Light Snow,0,2014-01-28 20:52:00
4:15 PM,15.8,3.2,58,30.07,2.5,Calm,Calm,-,0.00,Snow,Light Snow,0,2014-01-28 21:15:00
4:52 PM,15.1,5.0,64,30.21,3.0,North,3.5,-,0.00,Snow,Light Snow,360,2014-01-28 21:52:00
5:14 PM,14.0,5.0,67,30.07,2.5,Calm,Calm,-,0.00,Snow,Light Snow,0,2014-01-28 22:14:00
5:42 PM,12.2,5.0,73,30.07,1.0,WNW,5.8,-,0.00,Snow,Light Snow,300,2014-01-28 22:42:00
5:48 PM,12.2,5.0,73,30.07,0.8,WNW,5.8,-,0.00,Snow,Light Snow,300,2014-01-28 22:48:00
5:52 PM,12.9,5.0,71,30.22,0.8,NW,3.5,-,0.00,Snow,Light Snow,310,2014-01-28 22:52:00
5:59 PM,12.2,5.0,73,30.07,1.2,WNW,4.6,-,0.01,Snow,Light Snow,300,2014-01-28 22:59:00
6:17 PM,12.2,6.8,79,30.07,2.0,WNW,3.5,-,0.01,Snow,Light Snow,290,2014-01-28 23:17:00
6:52 PM,12.0,5.0,73,30.23,1.8,WNW,3.5,-,0.01,Snow,Light Snow,300,2014-01-28 23:52:00
7:03 PM,12.2,5.0,73,30.08,1.5,NW,3.5,-,0.00,Snow,Light Snow,310,2014-01-29 00:03:00
7:50 PM,12.2,5.0,73,30.06,1.8,Calm,Calm,-,0.02,Snow,Light Snow,0,2014-01-29 00:50:00
7:52 PM,12.0,5.0,73,30.21,1.8,Calm,Calm,-,0.02,Snow,Light Snow,0,2014-01-29 00:52:00
7:59 PM,12.2,5.0,73,30.06,2.5,NNW,3.5,-,0.00,Snow,Light Snow,330,2014-01-29 00:59:00
8:13 PM,10.4,5.0,79,30.06,3.0,West,4.6,-,0.00,Snow,Light Snow,280,2014-01-29 01:13:00
8:20 PM,10.4,5.0,79,30.05,2.5,WNW,3.5,-,0.00,Snow,Light Snow,290,2014-01-29 01:20:00
8:52 PM,10.9,5.0,77,30.22,2.0,NW,3.5,-,0.00,Snow,Light Snow,310,2014-01-29 01:52:00
9:31 PM,10.4,3.2,73,30.06,4.0,WNW,5.8,-,0.00,Snow,Light Snow,300,2014-01-29 02:31:00
9:52 PM,10.0,3.0,73,30.22,4.0,WNW,5.8,-,0.00,Snow,Light Snow,290,2014-01-29 02:52:00
10:34 PM,10.4,3.2,73,30.06,3.0,NW,8.1,-,0.00,Snow,Light Snow,310,2014-01-29 03:34:00
10:48 PM,8.6,1.4,73,30.06,8.0,WNW,6.9,-,0.00,Snow,Light Snow,290,2014-01-29 03:48:00
10:52 PM,9.0,1.9,73,30.21,8.0,WNW,9.2,-,0.00,,Overcast,290,2014-01-29 03:52:00
11:52 PM,8.1,-0.0,70,30.22,9.0,Variable,4.6,-,0.00,,Overcast,0,2014-01-29 04:52:00